Year,Month,Day,Hour,Minute,Value (Times are PST for temperature in C)
2014,07,14,00,00,23.90
2014,07,14,00,01,23.80
2014,07,14,00,02,23.80
2014,07,14,00,03,23.70
2014,07,14,00,04,23.70
2014,07,14,00,05,23.70
2014,07,14,00,06,23.70
2014,07,14,00,07,23.70
2014,07,14,00,08,23.60
2014,07,14,00,09,23.60
2014,07,14,00,10,23.50
2014,07,14,00,11,23.50
2014,07,14,00,12,23.40
2014,07,14,00,13,23.40
2014,07,14,00,14,23.40
2014,07,14,00,15,23.40
2014,07,14,00,16,23.40
2014,07,14,00,17,23.30
2014,07,14,00,18,23.30
2014,07,14,00,19,23.30
2014,07,14,00,20,23.30
2014,07,14,00,21,23.30
2014,07,14,00,22,23.30
2014,07,14,00,23,23.30
2014,07,14,00,24,23.30
2014,07,14,00,25,23.30
2014,07,14,00,26,23.20
2014,07,14,00,27,23.20
2014,07,14,00,28,23.20
2014,07,14,00,29,23.20
2014,07,14,00,30,23.10
2014,07,14,00,31,23.10
2014,07,14,00,32,23.10
2014,07,14,00,33,23.00
2014,07,14,00,34,23.00
2014,07,14,00,35,22.90
2014,07,14,00,36,22.90
2014,07,14,00,37,22.90
2014,07,14,00,38,22.80
2014,07,14,00,39,22.80
2014,07,14,00,40,22.80
2014,07,14,00,41,22.70
2014,07,14,00,42,22.70
2014,07,14,00,43,22.70
2014,07,14,00,44,22.70
2014,07,14,00,45,22.60
2014,07,14,00,46,22.60
2014,07,14,00,47,22.60
2014,07,14,00,48,22.60
2014,07,14,00,49,22.60
2014,07,14,00,50,22.50
2014,07,14,00,51,22.50
2014,07,14,00,52,22.40
2014,07,14,00,53,22.40
2014,07,14,00,54,22.40
2014,07,14,00,55,22.30
2014,07,14,00,56,22.30
2014,07,14,00,57,22.20
2014,07,14,00,58,22.20
2014,07,14,00,59,22.20
2014,07,14,01,00,22.10
2014,07,14,01,01,22.10
2014,07,14,01,02,22.10
2014,07,14,01,03,22.10
2014,07,14,01,04,22.00
2014,07,14,01,05,22.00
2014,07,14,01,06,22.00
2014,07,14,01,07,22.00
2014,07,14,01,08,22.00
2014,07,14,01,09,22.00
2014,07,14,01,10,22.00
2014,07,14,01,11,21.90
2014,07,14,01,12,21.90
2014,07,14,01,13,21.90
2014,07,14,01,14,21.90
2014,07,14,01,15,21.90
2014,07,14,01,16,21.90
2014,07,14,01,17,21.90
2014,07,14,01,18,21.90
2014,07,14,01,19,21.90
2014,07,14,01,20,21.90
2014,07,14,01,21,21.90
2014,07,14,01,22,21.90
2014,07,14,01,23,21.90
2014,07,14,01,24,21.80
2014,07,14,01,25,21.80
2014,07,14,01,26,21.80
2014,07,14,01,27,21.80
2014,07,14,01,28,21.80
2014,07,14,01,29,21.80
2014,07,14,01,30,21.80
2014,07,14,01,31,21.80
2014,07,14,01,32,21.70
2014,07,14,01,33,21.70
2014,07,14,01,34,21.80
2014,07,14,01,35,21.80
2014,07,14,01,36,21.90
2014,07,14,01,37,21.90
2014,07,14,01,38,22.00
2014,07,14,01,39,22.00
2014,07,14,01,40,22.10
2014,07,14,01,41,22.10
2014,07,14,01,42,22.10
2014,07,14,01,43,22.10
2014,07,14,01,44,22.20
2014,07,14,01,45,22.20
2014,07,14,01,46,22.20
2014,07,14,01,47,22.20
2014,07,14,01,48,22.20
2014,07,14,01,49,22.20
2014,07,14,01,50,22.20
2014,07,14,01,51,22.20
2014,07,14,01,52,22.20
2014,07,14,01,53,22.20
2014,07,14,01,54,22.20
2014,07,14,01,55,22.20
2014,07,14,01,56,22.10
2014,07,14,01,57,22.10
2014,07,14,01,58,22.10
2014,07,14,01,59,22.10
2014,07,14,02,00,22.00
2014,07,14,02,01,22.00
2014,07,14,02,02,22.00
2014,07,14,02,03,22.00
2014,07,14,02,04,22.00
2014,07,14,02,05,22.00
2014,07,14,02,06,22.00
2014,07,14,02,07,21.90
2014,07,14,02,08,21.90
2014,07,14,02,09,21.90
2014,07,14,02,10,21.90
2014,07,14,02,11,22.00
2014,07,14,02,12,22.00
2014,07,14,02,13,22.10
2014,07,14,02,14,22.10
2014,07,14,02,15,22.10
2014,07,14,02,16,22.20
2014,07,14,02,17,22.20
2014,07,14,02,18,22.20
2014,07,14,02,19,22.30
2014,07,14,02,20,22.30
2014,07,14,02,21,22.30
2014,07,14,02,22,22.30
2014,07,14,02,23,22.30
2014,07,14,02,24,22.30
2014,07,14,02,25,22.40
2014,07,14,02,26,22.40
2014,07,14,02,27,22.40
2014,07,14,02,28,22.40
2014,07,14,02,29,22.40
2014,07,14,02,30,22.40
2014,07,14,02,31,22.40
2014,07,14,02,32,22.30
2014,07,14,02,33,22.30
2014,07,14,02,34,22.20
2014,07,14,02,35,22.10
2014,07,14,02,36,22.00
2014,07,14,02,37,22.00
2014,07,14,02,38,21.90
2014,07,14,02,39,21.80
2014,07,14,02,40,21.80
2014,07,14,02,41,21.80
2014,07,14,02,42,21.70
2014,07,14,02,43,21.70
2014,07,14,02,44,21.60
2014,07,14,02,45,21.50
2014,07,14,02,46,21.50
2014,07,14,02,47,21.40
2014,07,14,02,48,21.40
2014,07,14,02,49,21.30
2014,07,14,02,50,21.30
2014,07,14,02,51,21.30
2014,07,14,02,52,21.20
2014,07,14,02,53,21.20
2014,07,14,02,54,21.20
2014,07,14,02,55,21.20
2014,07,14,02,56,21.10
2014,07,14,02,57,21.10
2014,07,14,02,58,21.10
2014,07,14,02,59,21.10
2014,07,14,03,00,21.10
2014,07,14,03,01,21.10
2014,07,14,03,02,21.10
2014,07,14,03,03,21.10
2014,07,14,03,04,21.10
2014,07,14,03,05,21.10
2014,07,14,03,06,21.10
2014,07,14,03,07,21.10
2014,07,14,03,08,21.10
2014,07,14,03,09,21.10
2014,07,14,03,10,21.10
2014,07,14,03,11,21.10
2014,07,14,03,12,21.10
2014,07,14,03,13,21.10
2014,07,14,03,14,21.10
2014,07,14,03,15,21.10
2014,07,14,03,16,21.10
2014,07,14,03,17,21.20
2014,07,14,03,18,21.20
2014,07,14,03,19,21.30
2014,07,14,03,20,21.30
2014,07,14,03,21,21.30
2014,07,14,03,22,21.40
2014,07,14,03,23,21.40
2014,07,14,03,24,21.50
2014,07,14,03,25,21.50
2014,07,14,03,26,21.50
2014,07,14,03,27,21.50
2014,07,14,03,28,21.50
2014,07,14,03,29,21.50
2014,07,14,03,30,21.50
2014,07,14,03,31,21.40
2014,07,14,03,32,21.40
2014,07,14,03,33,21.30
2014,07,14,03,34,21.20
2014,07,14,03,35,21.20
2014,07,14,03,36,21.10
2014,07,14,03,37,21.10
2014,07,14,03,38,21.10
2014,07,14,03,39,21.00
2014,07,14,03,40,20.90
2014,07,14,03,41,20.90
2014,07,14,03,42,20.80
2014,07,14,03,43,20.80
2014,07,14,03,44,20.80
2014,07,14,03,45,20.80
2014,07,14,03,46,20.70
2014,07,14,03,47,20.70
2014,07,14,03,48,20.60
2014,07,14,03,49,20.60
2014,07,14,03,50,20.60
2014,07,14,03,51,20.60
2014,07,14,03,52,20.50
2014,07,14,03,53,20.50
2014,07,14,03,54,20.40
2014,07,14,03,55,20.40
2014,07,14,03,56,20.40
2014,07,14,03,57,20.30
2014,07,14,03,58,20.30
2014,07,14,03,59,20.30
2014,07,14,04,00,20.30
2014,07,14,04,01,20.30
2014,07,14,04,02,20.20
2014,07,14,04,03,20.20
2014,07,14,04,04,20.20
2014,07,14,04,05,20.20
2014,07,14,04,06,20.20
2014,07,14,04,07,20.10
2014,07,14,04,08,20.10
2014,07,14,04,09,20.10
2014,07,14,04,10,20.10
2014,07,14,04,11,20.10
2014,07,14,04,12,20.10
2014,07,14,04,13,20.00
2014,07,14,04,14,20.00
2014,07,14,04,15,20.00
2014,07,14,04,16,20.10
2014,07,14,04,17,20.10
2014,07,14,04,18,20.10
2014,07,14,04,19,20.10
2014,07,14,04,20,20.10
2014,07,14,04,21,20.10
2014,07,14,04,22,20.20
2014,07,14,04,23,20.20
2014,07,14,04,24,20.20
2014,07,14,04,25,20.20
2014,07,14,04,26,20.20
2014,07,14,04,27,20.20
2014,07,14,04,28,20.20
2014,07,14,04,29,20.20
2014,07,14,04,30,20.20
2014,07,14,04,31,20.20
2014,07,14,04,32,20.10
2014,07,14,04,33,20.10
2014,07,14,04,34,20.00
2014,07,14,04,35,19.90
2014,07,14,04,36,19.80
2014,07,14,04,37,19.80
2014,07,14,04,38,19.80
2014,07,14,04,39,19.70
2014,07,14,04,40,19.70
2014,07,14,04,41,19.70
2014,07,14,04,42,19.70
2014,07,14,04,43,19.70
2014,07,14,04,44,19.70
2014,07,14,04,45,19.70
2014,07,14,04,46,19.70
2014,07,14,04,47,19.70
2014,07,14,04,48,19.60
2014,07,14,04,49,19.60
2014,07,14,04,50,19.60
2014,07,14,04,51,19.60
2014,07,14,04,52,19.60
2014,07,14,04,53,19.50
2014,07,14,04,54,19.50
2014,07,14,04,55,19.40
2014,07,14,04,56,19.30
2014,07,14,04,57,19.30
2014,07,14,04,58,19.30
2014,07,14,04,59,19.30
2014,07,14,05,00,19.30
2014,07,14,05,01,19.30
2014,07,14,05,02,19.30
2014,07,14,05,03,19.30
2014,07,14,05,04,19.40
2014,07,14,05,05,19.40
2014,07,14,05,06,19.40
2014,07,14,05,07,19.40
2014,07,14,05,08,19.50
2014,07,14,05,09,19.50
2014,07,14,05,10,19.50
2014,07,14,05,11,19.60
2014,07,14,05,12,19.60
2014,07,14,05,13,19.60
2014,07,14,05,14,19.60
2014,07,14,05,15,19.60
2014,07,14,05,16,19.60
2014,07,14,05,17,19.60
2014,07,14,05,18,19.60
2014,07,14,05,19,19.60
2014,07,14,05,20,19.60
2014,07,14,05,21,19.60
2014,07,14,05,22,19.60
2014,07,14,05,23,19.60
2014,07,14,05,24,19.50
2014,07,14,05,25,19.50
2014,07,14,05,26,19.40
2014,07,14,05,27,19.40
2014,07,14,05,28,19.40
2014,07,14,05,29,19.40
2014,07,14,05,30,19.40
2014,07,14,05,31,19.40
2014,07,14,05,32,19.40
2014,07,14,05,33,19.40
2014,07,14,05,34,19.30
2014,07,14,05,35,19.30
2014,07,14,05,36,19.30
2014,07,14,05,37,19.30
2014,07,14,05,38,19.20
2014,07,14,05,39,19.20
2014,07,14,05,40,19.20
2014,07,14,05,41,19.10
2014,07,14,05,42,19.10
2014,07,14,05,43,19.10
2014,07,14,05,44,19.10
2014,07,14,05,45,19.00
2014,07,14,05,46,19.00
2014,07,14,05,47,19.00
2014,07,14,05,48,19.00
2014,07,14,05,49,19.00
2014,07,14,05,50,19.00
2014,07,14,05,51,19.00
2014,07,14,05,52,19.00
2014,07,14,05,53,19.00
2014,07,14,05,54,19.10
2014,07,14,05,55,19.20
2014,07,14,05,56,19.20
2014,07,14,05,57,19.20
2014,07,14,05,58,19.30
2014,07,14,05,59,19.30
2014,07,14,06,00,19.30
2014,07,14,06,01,19.40
2014,07,14,06,02,19.40
2014,07,14,06,03,19.40
2014,07,14,06,04,19.40
2014,07,14,06,05,19.40
2014,07,14,06,06,19.50
2014,07,14,06,07,19.50
2014,07,14,06,08,19.50
2014,07,14,06,09,19.50
2014,07,14,06,10,19.50
2014,07,14,06,11,19.50
2014,07,14,06,12,19.50
2014,07,14,06,13,19.50
2014,07,14,06,14,19.50
2014,07,14,06,15,19.50
2014,07,14,06,16,19.50
2014,07,14,06,17,19.50
2014,07,14,06,18,19.50
2014,07,14,06,19,19.50
2014,07,14,06,20,19.50
2014,07,14,06,21,19.60
2014,07,14,06,22,19.60
2014,07,14,06,23,19.60
2014,07,14,06,24,19.60
2014,07,14,06,25,19.60
2014,07,14,06,26,19.60
2014,07,14,06,27,19.70
2014,07,14,06,28,19.70
2014,07,14,06,29,19.70
2014,07,14,06,30,19.70
2014,07,14,06,31,19.80
2014,07,14,06,32,19.80
2014,07,14,06,33,19.80
2014,07,14,06,34,19.80
2014,07,14,06,35,19.80
2014,07,14,06,36,19.90
2014,07,14,06,37,19.90
2014,07,14,06,38,19.90
2014,07,14,06,39,20.00
2014,07,14,06,40,20.10
2014,07,14,06,41,20.10
2014,07,14,06,42,20.10
2014,07,14,06,43,20.20
2014,07,14,06,44,20.20
2014,07,14,06,45,20.20
2014,07,14,06,46,20.30
2014,07,14,06,47,20.30
2014,07,14,06,48,20.30
2014,07,14,06,49,20.30
2014,07,14,06,50,20.30
2014,07,14,06,51,20.40
2014,07,14,06,52,20.40
2014,07,14,06,53,20.40
2014,07,14,06,54,20.40
2014,07,14,06,55,20.40
2014,07,14,06,56,20.50
2014,07,14,06,57,20.50
2014,07,14,06,58,20.50
2014,07,14,06,59,20.60
2014,07,14,07,00,20.60
2014,07,14,07,01,20.60
2014,07,14,07,02,20.60
2014,07,14,07,03,20.60
2014,07,14,07,04,20.60
2014,07,14,07,05,20.60
2014,07,14,07,06,20.60
2014,07,14,07,07,20.60
2014,07,14,07,08,20.60
2014,07,14,07,09,20.50
2014,07,14,07,10,20.50
2014,07,14,07,11,20.40
2014,07,14,07,12,20.40
2014,07,14,07,13,20.30
2014,07,14,07,14,20.30
2014,07,14,07,15,20.20
2014,07,14,07,16,20.20
2014,07,14,07,17,20.20
2014,07,14,07,18,20.20
2014,07,14,07,19,20.20
2014,07,14,07,20,20.20
2014,07,14,07,21,20.20
2014,07,14,07,22,20.20
2014,07,14,07,23,20.30
2014,07,14,07,24,20.30
2014,07,14,07,25,20.40
2014,07,14,07,26,20.40
2014,07,14,07,27,20.50
2014,07,14,07,28,20.50
2014,07,14,07,29,20.60
2014,07,14,07,30,20.60
2014,07,14,07,31,20.60
2014,07,14,07,32,20.60
2014,07,14,07,33,20.70
2014,07,14,07,34,20.70
2014,07,14,07,35,20.80
2014,07,14,07,36,20.80
2014,07,14,07,37,20.80
2014,07,14,07,38,20.80
2014,07,14,07,39,20.80
2014,07,14,07,40,20.80
2014,07,14,07,41,20.80
2014,07,14,07,42,20.80
2014,07,14,07,43,20.80
2014,07,14,07,44,20.80
2014,07,14,07,45,20.90
2014,07,14,07,46,20.90
2014,07,14,07,47,21.00
2014,07,14,07,48,21.00
2014,07,14,07,49,21.10
2014,07,14,07,50,21.10
2014,07,14,07,51,21.00
2014,07,14,07,52,21.00
2014,07,14,07,53,20.90
2014,07,14,07,54,20.90
2014,07,14,07,55,20.90
2014,07,14,07,56,20.90
2014,07,14,07,57,20.90
2014,07,14,07,58,20.90
2014,07,14,07,59,20.90
2014,07,14,08,00,20.90
2014,07,14,08,01,20.90
2014,07,14,08,02,20.90
2014,07,14,08,03,20.90
2014,07,14,08,04,20.90
2014,07,14,08,05,20.90
2014,07,14,08,06,21.00
2014,07,14,08,07,21.10
2014,07,14,08,08,21.10
2014,07,14,08,09,21.20
2014,07,14,08,10,21.30
2014,07,14,08,11,21.50
2014,07,14,08,12,21.50
2014,07,14,08,13,21.70
2014,07,14,08,14,21.70
2014,07,14,08,15,21.80
2014,07,14,08,16,21.90
2014,07,14,08,17,22.00
2014,07,14,08,18,22.00
2014,07,14,08,19,22.00
2014,07,14,08,20,22.00
2014,07,14,08,21,21.90
2014,07,14,08,22,21.80
2014,07,14,08,23,21.70
2014,07,14,08,24,21.70
2014,07,14,08,25,21.60
2014,07,14,08,26,21.50
2014,07,14,08,27,21.40
2014,07,14,08,28,21.30
2014,07,14,08,29,21.20
2014,07,14,08,30,21.10
2014,07,14,08,31,21.10
2014,07,14,08,32,21.00
2014,07,14,08,33,21.00
2014,07,14,08,34,21.00
2014,07,14,08,35,21.00
2014,07,14,08,36,21.00
2014,07,14,08,37,21.10
2014,07,14,08,38,21.10
2014,07,14,08,39,21.10
2014,07,14,08,40,21.20
2014,07,14,08,41,21.30
2014,07,14,08,42,21.40
2014,07,14,08,43,21.50
2014,07,14,08,44,21.60
2014,07,14,08,45,21.70
2014,07,14,08,46,21.80
2014,07,14,08,47,21.80
2014,07,14,08,48,21.90
2014,07,14,08,49,22.00
2014,07,14,08,50,22.10
2014,07,14,08,51,22.20
2014,07,14,08,52,22.40
2014,07,14,08,53,22.50
2014,07,14,08,54,22.60
2014,07,14,08,55,22.70
2014,07,14,08,56,22.80
2014,07,14,08,57,22.90
2014,07,14,08,58,22.90
2014,07,14,08,59,22.90
2014,07,14,09,00,23.00
2014,07,14,09,01,23.00
2014,07,14,09,02,23.10
2014,07,14,09,03,23.10
2014,07,14,09,04,23.20
2014,07,14,09,05,23.30
2014,07,14,09,06,23.40
2014,07,14,09,07,23.60
2014,07,14,09,08,23.80
2014,07,14,09,09,24.00
2014,07,14,09,10,24.10
2014,07,14,09,11,24.20
2014,07,14,09,12,24.40
2014,07,14,09,13,24.40
2014,07,14,09,14,24.50
2014,07,14,09,15,24.60
2014,07,14,09,16,24.70
2014,07,14,09,17,24.80
2014,07,14,09,18,24.80
2014,07,14,09,19,24.70
2014,07,14,09,20,24.60
2014,07,14,09,21,24.60
2014,07,14,09,22,24.50
2014,07,14,09,23,24.40
2014,07,14,09,24,24.30
2014,07,14,09,25,24.20
2014,07,14,09,26,24.10
2014,07,14,09,27,24.00
2014,07,14,09,28,23.90
2014,07,14,09,29,23.80
2014,07,14,09,30,23.70
2014,07,14,09,31,23.70
2014,07,14,09,32,23.70
2014,07,14,09,33,23.70
2014,07,14,09,34,23.80
2014,07,14,09,35,23.80
2014,07,14,09,36,23.90
2014,07,14,09,37,23.90
2014,07,14,09,38,23.80
2014,07,14,09,39,23.80
2014,07,14,09,40,23.70
2014,07,14,09,41,23.60
2014,07,14,09,42,23.40
2014,07,14,09,43,23.20
2014,07,14,09,44,23.10
2014,07,14,09,45,23.00
2014,07,14,09,46,23.00
2014,07,14,09,47,23.00
2014,07,14,09,48,22.90
2014,07,14,09,49,22.90
2014,07,14,09,50,22.80
2014,07,14,09,51,22.80
2014,07,14,09,52,22.70
2014,07,14,09,53,22.70
2014,07,14,09,54,22.60
2014,07,14,09,55,22.60
2014,07,14,09,56,22.60
2014,07,14,09,57,22.60
2014,07,14,09,58,22.60
2014,07,14,09,59,22.70
2014,07,14,10,00,22.80
2014,07,14,10,01,22.90
2014,07,14,10,02,23.10
2014,07,14,10,03,23.20
2014,07,14,10,04,23.40
2014,07,14,10,05,23.60
2014,07,14,10,06,23.80
2014,07,14,10,07,24.00
2014,07,14,10,08,24.20
2014,07,14,10,09,24.40
2014,07,14,10,10,24.60
2014,07,14,10,11,24.80
2014,07,14,10,12,25.00
2014,07,14,10,13,25.20
2014,07,14,10,14,25.40
2014,07,14,10,15,25.50
2014,07,14,10,16,25.70
2014,07,14,10,17,25.80
2014,07,14,10,18,25.90
2014,07,14,10,19,26.00
2014,07,14,10,20,26.20
2014,07,14,10,21,26.30
2014,07,14,10,22,26.40
2014,07,14,10,23,26.40
2014,07,14,10,24,26.50
2014,07,14,10,25,26.50
2014,07,14,10,26,26.60
2014,07,14,10,27,26.70
2014,07,14,10,28,26.90
2014,07,14,10,29,27.00
2014,07,14,10,30,27.00
2014,07,14,10,31,27.10
2014,07,14,10,32,27.20
2014,07,14,10,33,27.30
2014,07,14,10,34,27.30
2014,07,14,10,35,27.20
2014,07,14,10,36,27.00
2014,07,14,10,37,26.70
2014,07,14,10,38,26.30
2014,07,14,10,39,26.10
2014,07,14,10,40,25.80
2014,07,14,10,41,25.60
2014,07,14,10,42,25.50
2014,07,14,10,43,25.40
2014,07,14,10,44,25.30
2014,07,14,10,45,25.20
2014,07,14,10,46,25.00
2014,07,14,10,47,24.80
2014,07,14,10,48,24.70
2014,07,14,10,49,24.70
2014,07,14,10,50,24.70
2014,07,14,10,51,24.70
2014,07,14,10,52,24.70
2014,07,14,10,53,24.80
2014,07,14,10,54,24.70
2014,07,14,10,55,24.70
2014,07,14,10,56,24.60
2014,07,14,10,57,24.60
2014,07,14,10,58,24.60
2014,07,14,10,59,24.60
2014,07,14,11,00,24.60
2014,07,14,11,01,24.50
2014,07,14,11,02,24.40
2014,07,14,11,03,24.40
2014,07,14,11,04,24.30
2014,07,14,11,05,24.20
2014,07,14,11,06,24.20
2014,07,14,11,07,24.20
2014,07,14,11,08,24.20
2014,07,14,11,09,24.20
2014,07,14,11,10,24.20
2014,07,14,11,11,24.10
2014,07,14,11,12,24.00
2014,07,14,11,13,23.90
2014,07,14,11,14,23.90
2014,07,14,11,15,23.90
2014,07,14,11,16,23.90
2014,07,14,11,17,23.90
2014,07,14,11,18,24.00
2014,07,14,11,19,24.10
2014,07,14,11,20,24.10
2014,07,14,11,21,24.10
2014,07,14,11,22,24.20
2014,07,14,11,23,24.20
2014,07,14,11,24,24.30
2014,07,14,11,25,24.40
2014,07,14,11,26,24.40
2014,07,14,11,27,24.50
2014,07,14,11,28,24.70
2014,07,14,11,29,24.80
2014,07,14,11,30,24.80
2014,07,14,11,31,24.80
2014,07,14,11,32,24.70
2014,07,14,11,33,24.70
2014,07,14,11,34,24.60
2014,07,14,11,35,24.50
2014,07,14,11,36,24.40
2014,07,14,11,37,24.40
2014,07,14,11,38,24.30
2014,07,14,11,39,24.40
2014,07,14,11,40,24.40
2014,07,14,11,41,24.40
2014,07,14,11,42,24.40
2014,07,14,11,43,24.30
2014,07,14,11,44,24.40
2014,07,14,11,45,24.40
2014,07,14,11,46,24.30
2014,07,14,11,47,24.20
2014,07,14,11,48,24.20
2014,07,14,11,49,24.10
2014,07,14,11,50,24.00
2014,07,14,11,51,24.00
2014,07,14,11,52,23.90
2014,07,14,11,53,24.00
2014,07,14,11,54,24.00
2014,07,14,11,55,24.10
2014,07,14,11,56,24.20
2014,07,14,11,57,24.30
2014,07,14,11,58,24.40
2014,07,14,11,59,24.40
2014,07,14,12,00,24.50
2014,07,14,12,01,24.50
2014,07,14,12,02,24.60
2014,07,14,12,03,24.60
2014,07,14,12,04,24.70
2014,07,14,12,05,24.80
2014,07,14,12,06,24.80
2014,07,14,12,07,24.90
2014,07,14,12,08,24.90
2014,07,14,12,09,25.00
2014,07,14,12,10,25.10
2014,07,14,12,11,25.30
2014,07,14,12,12,25.40
2014,07,14,12,13,25.60
2014,07,14,12,14,25.60
2014,07,14,12,15,25.70
2014,07,14,12,16,25.70
2014,07,14,12,17,25.70
2014,07,14,12,18,25.80
2014,07,14,12,19,26.00
2014,07,14,12,20,26.10
2014,07,14,12,21,26.20
2014,07,14,12,22,26.30
2014,07,14,12,23,26.40
2014,07,14,12,24,26.40
2014,07,14,12,25,26.50
2014,07,14,12,26,26.60
2014,07,14,12,27,26.70
2014,07,14,12,28,26.80
2014,07,14,12,29,26.80
2014,07,14,12,30,26.90
2014,07,14,12,31,27.00
2014,07,14,12,32,27.00
2014,07,14,12,33,27.10
2014,07,14,12,34,27.10
2014,07,14,12,35,27.20
2014,07,14,12,36,27.20
2014,07,14,12,37,27.20
2014,07,14,12,38,27.20
2014,07,14,12,39,27.10
2014,07,14,12,40,27.10
2014,07,14,12,41,27.10
2014,07,14,12,42,27.10
2014,07,14,12,43,27.10
2014,07,14,12,44,27.20
2014,07,14,12,45,27.20
2014,07,14,12,46,27.20
2014,07,14,12,47,27.30
2014,07,14,12,48,27.30
2014,07,14,12,49,27.40
2014,07,14,12,50,27.50
2014,07,14,12,51,27.50
2014,07,14,12,52,27.50
2014,07,14,12,53,27.50
2014,07,14,12,54,27.50
2014,07,14,12,55,27.40
2014,07,14,12,56,27.30
2014,07,14,12,57,27.30
2014,07,14,12,58,27.20
2014,07,14,12,59,27.20
2014,07,14,13,00,27.20
2014,07,14,13,01,27.20
2014,07,14,13,02,27.20
2014,07,14,13,03,27.20
2014,07,14,13,04,27.30
2014,07,14,13,05,27.20
2014,07,14,13,06,27.10
2014,07,14,13,07,26.80
2014,07,14,13,08,26.60
2014,07,14,13,09,26.30
2014,07,14,13,10,26.00
2014,07,14,13,11,25.80
2014,07,14,13,12,25.70
2014,07,14,13,13,25.50
2014,07,14,13,14,25.40
2014,07,14,13,15,25.30
2014,07,14,13,16,25.30
2014,07,14,13,17,25.20
2014,07,14,13,18,25.10
2014,07,14,13,19,25.00
2014,07,14,13,20,24.90
2014,07,14,13,21,24.90
2014,07,14,13,22,24.90
2014,07,14,13,23,24.90
2014,07,14,13,24,24.90
2014,07,14,13,25,24.80
2014,07,14,13,26,24.80
2014,07,14,13,27,24.80
2014,07,14,13,28,24.70
2014,07,14,13,29,24.80
2014,07,14,13,30,24.80
2014,07,14,13,31,24.80
2014,07,14,13,32,24.90
2014,07,14,13,33,25.00
2014,07,14,13,34,25.00
2014,07,14,13,35,25.20
2014,07,14,13,36,25.20
2014,07,14,13,37,25.20
2014,07,14,13,38,25.20
2014,07,14,13,39,25.20
2014,07,14,13,40,25.20
2014,07,14,13,41,25.20
2014,07,14,13,42,25.40
2014,07,14,13,43,25.40
2014,07,14,13,44,25.50
2014,07,14,13,45,25.60
2014,07,14,13,46,25.50
2014,07,14,13,47,25.50
2014,07,14,13,48,25.40
2014,07,14,13,49,25.30
2014,07,14,13,50,25.20
2014,07,14,13,51,25.20
2014,07,14,13,52,25.20
2014,07,14,13,53,25.20
2014,07,14,13,54,25.20
2014,07,14,13,55,25.20
2014,07,14,13,56,25.20
2014,07,14,13,57,25.30
2014,07,14,13,58,25.40
2014,07,14,13,59,25.40
2014,07,14,14,00,25.40
2014,07,14,14,01,25.50
2014,07,14,14,02,25.50
2014,07,14,14,03,25.40
2014,07,14,14,04,25.30
2014,07,14,14,05,25.30
2014,07,14,14,06,25.40
2014,07,14,14,07,25.50
2014,07,14,14,08,25.60
2014,07,14,14,09,25.60
2014,07,14,14,10,25.60
2014,07,14,14,11,25.60
2014,07,14,14,12,25.60
2014,07,14,14,13,25.70
2014,07,14,14,14,25.70
2014,07,14,14,15,25.70
2014,07,14,14,16,25.60
2014,07,14,14,17,25.50
2014,07,14,14,18,25.40
2014,07,14,14,19,25.40
2014,07,14,14,20,25.50
2014,07,14,14,21,25.60
2014,07,14,14,22,25.70
2014,07,14,14,23,25.80
2014,07,14,14,24,25.80
2014,07,14,14,25,25.90
2014,07,14,14,26,25.80
2014,07,14,14,27,25.80
2014,07,14,14,28,25.90
2014,07,14,14,29,26.00
2014,07,14,14,30,26.20
2014,07,14,14,31,26.30
2014,07,14,14,32,26.50
2014,07,14,14,33,26.60
2014,07,14,14,34,26.80
2014,07,14,14,35,26.80
2014,07,14,14,36,26.80
2014,07,14,14,37,26.90
2014,07,14,14,38,26.90
2014,07,14,14,39,26.90
2014,07,14,14,40,26.90
2014,07,14,14,41,26.90
2014,07,14,14,42,27.00
2014,07,14,14,43,27.00
2014,07,14,14,44,27.00
2014,07,14,14,45,27.00
2014,07,14,14,46,27.10
2014,07,14,14,47,27.10
2014,07,14,14,48,27.10
2014,07,14,14,49,27.10
2014,07,14,14,50,27.20
2014,07,14,14,51,27.20
2014,07,14,14,52,27.30
2014,07,14,14,53,27.40
2014,07,14,14,54,27.50
2014,07,14,14,55,27.60
2014,07,14,14,56,27.70
2014,07,14,14,57,27.70
2014,07,14,14,58,27.70
2014,07,14,14,59,27.60
2014,07,14,15,00,27.50
2014,07,14,15,01,27.40
2014,07,14,15,02,27.20
2014,07,14,15,03,27.00
2014,07,14,15,04,26.70
2014,07,14,15,05,26.50
2014,07,14,15,06,26.30
2014,07,14,15,07,26.20
2014,07,14,15,08,26.20
2014,07,14,15,09,26.30
2014,07,14,15,10,26.40
2014,07,14,15,11,26.50
2014,07,14,15,12,26.60
2014,07,14,15,13,26.60
2014,07,14,15,14,26.60
2014,07,14,15,15,26.70
2014,07,14,15,16,26.80
2014,07,14,15,17,26.80
2014,07,14,15,18,26.90
2014,07,14,15,19,27.00
2014,07,14,15,20,27.10
2014,07,14,15,21,27.10
2014,07,14,15,22,27.20
2014,07,14,15,23,27.20
2014,07,14,15,24,27.20
2014,07,14,15,25,27.20
2014,07,14,15,26,27.20
2014,07,14,15,27,27.30
2014,07,14,15,28,27.30
2014,07,14,15,29,27.30
2014,07,14,15,30,27.20
2014,07,14,15,31,27.10
2014,07,14,15,32,27.10
2014,07,14,15,33,27.10
2014,07,14,15,34,27.10
2014,07,14,15,35,27.10
2014,07,14,15,36,27.10
2014,07,14,15,37,27.20
2014,07,14,15,38,27.20
2014,07,14,15,39,27.20
2014,07,14,15,40,27.20
2014,07,14,15,41,27.30
2014,07,14,15,42,27.30
2014,07,14,15,43,27.30
2014,07,14,15,44,27.30
2014,07,14,15,45,27.30
2014,07,14,15,46,27.30
2014,07,14,15,47,27.30
2014,07,14,15,48,27.30
2014,07,14,15,49,27.30
2014,07,14,15,50,27.30
2014,07,14,15,51,27.20
2014,07,14,15,52,27.20
2014,07,14,15,53,27.20
2014,07,14,15,54,27.20
2014,07,14,15,55,27.20
2014,07,14,15,56,27.20
2014,07,14,15,57,27.30
2014,07,14,15,58,27.40
2014,07,14,15,59,27.40
2014,07,14,16,00,27.40
2014,07,14,16,01,27.20
2014,07,14,16,02,27.20
2014,07,14,16,03,27.10
2014,07,14,16,04,27.00
2014,07,14,16,05,26.80
2014,07,14,16,06,26.60
2014,07,14,16,07,26.60
2014,07,14,16,08,26.50
2014,07,14,16,09,26.60
2014,07,14,16,10,26.60
2014,07,14,16,11,26.60
2014,07,14,16,12,26.40
2014,07,14,16,13,26.30
2014,07,14,16,14,26.10
2014,07,14,16,15,25.90
2014,07,14,16,16,25.80
2014,07,14,16,17,25.70
2014,07,14,16,18,25.60
2014,07,14,16,19,25.60
2014,07,14,16,20,25.60
2014,07,14,16,21,25.60
2014,07,14,16,22,25.70
2014,07,14,16,23,25.90
2014,07,14,16,24,26.00
2014,07,14,16,25,26.00
2014,07,14,16,26,26.10
2014,07,14,16,27,26.20
2014,07,14,16,28,26.20
2014,07,14,16,29,26.20
2014,07,14,16,30,26.20
2014,07,14,16,31,26.20
2014,07,14,16,32,26.20
2014,07,14,16,33,26.20
2014,07,14,16,34,26.20
2014,07,14,16,35,26.30
2014,07,14,16,36,26.20
2014,07,14,16,37,26.20
2014,07,14,16,38,26.20
2014,07,14,16,39,26.10
2014,07,14,16,40,26.10
2014,07,14,16,41,26.00
2014,07,14,16,42,25.90
2014,07,14,16,43,25.80
2014,07,14,16,44,25.80
2014,07,14,16,45,25.80
2014,07,14,16,46,25.80
2014,07,14,16,47,25.70
2014,07,14,16,48,25.60
2014,07,14,16,49,25.60
2014,07,14,16,50,25.60
2014,07,14,16,51,25.50
2014,07,14,16,52,25.50
2014,07,14,16,53,25.50
2014,07,14,16,54,25.50
2014,07,14,16,55,25.50
2014,07,14,16,56,25.50
2014,07,14,16,57,25.50
2014,07,14,16,58,25.50
2014,07,14,16,59,25.40
2014,07,14,17,00,25.40
2014,07,14,17,01,25.40
2014,07,14,17,02,25.40
2014,07,14,17,03,25.50
2014,07,14,17,04,25.50
2014,07,14,17,05,25.50
2014,07,14,17,06,25.50
2014,07,14,17,07,25.60
2014,07,14,17,08,25.60
2014,07,14,17,09,25.70
2014,07,14,17,10,25.70
2014,07,14,17,11,25.70
2014,07,14,17,12,25.80
2014,07,14,17,13,25.80
2014,07,14,17,14,25.90
2014,07,14,17,15,25.90
2014,07,14,17,16,26.00
2014,07,14,17,17,26.10
2014,07,14,17,18,26.10
2014,07,14,17,19,26.20